Location: Garden of he Gods Recreation Area
(37.6010°N, 88.3780°W)
Time: 06:27:26
(UTC-05:00)

Tiangong 2 - Visible Passes

Search period start: 21 March 2019 00:00
Search period end: 31 March 2019 00:00
Orbit: 379 x 390 km, 42.8° (Epoch: 21 March)

Date Brightness Start Highest point End Pass type
(mag) Time Alt. Az. Time Alt. Az. Time Alt. Az.
21 Mar 1.7 05:16:09 50° N 05:16:17 51° NNE 05:19:24 10° E visible
22 Mar 4.7 04:19:39 10° E 04:19:39 10° E 04:19:41 10° E visible
22 Mar 1.2 05:51:54 24° W 05:53:33 57° SSW 05:56:41 10° SE visible
23 Mar 2.9 04:55:31 29° ESE 04:55:31 29° ESE 04:57:15 10° ESE visible
24 Mar 2.1 05:31:34 29° SSW 05:31:34 29° SSW 05:34:02 10° SSE visible
29 Mar 2.1 20:17:16 10° SSW 20:19:58 27° SSE 20:20:22 26° SE visible
30 Mar 1.4 20:53:52 10° WSW 20:56:32 62° WSW 20:56:32 62° WSW visible
